User: anonymous   Login
Location: Ariel
(45.9570°N, 122.5700°W)
Time: 03:21:58
(UTC-07:00)
Language:

Transit 4A - Orbit

View from above orbital plane
View from above orbital plane
View from above satellite
View from above satellite

Ground track
Ground track

The orbit data is extracted from the following two-line orbital elements,

1 00116U 61015A   21170.89573766 -.00000061  00000-0  12113-4 0  9993
2 00116  66.8107  29.9445 0069203 113.5072 247.3300 13.91791991 42948
Epoch (UTC): 19 June 2021 21:29:51
Eccentricity: 0.0069203
inclination: 66.8107°
perigee height: 872 km
apogee height: 973 km
right ascension of ascending node: 29.9445°
argument of perigee: 113.5072°
revolutions per day: 13.91791991
mean anomaly at epoch: 247.3300°
orbit number at epoch: 4294

The dashed part of the orbit path shows where the satellite is in the earth's shadow,  

DLR